Location: ??????????
(54.4061°N, 22.6114°E)
Time: 12:52:24
(UTC+00:00)

ADEOS Rocket - Pass Details

Date: 23 October 2019
Orbit: 859 x 1306 km, 98.7° (Epoch: 21 November)

Event Time Altitude Azimuth Distance (km) Brightness Sun altitude
Rises 19:45:16 0° 15° (NNE) 4,309 6.6 -38.1°
Reaches altitude 10° 19:48:09 10° 10° (N) 3,320 6.0 -38.4°
Maximum altitude 19:55:18 44° 302° (WNW) 1,680 4.4 -39.2°
Enters shadow 19:59:57 20° 243° (WSW) 2,459 5.1 -39.6°
